TimeEST,TemperatureF,Dew PointF,Humidity,Sea Level PressureIn,VisibilityMPH,Wind Direction,Wind SpeedMPH,Gust SpeedMPH,PrecipitationIn,Events,Conditions,WindDirDegrees,DateUTC
12:15 AM,49.8,49.8,100,29.92,4.0,North,-9999.0,-,N/A,,Scattered Clouds,0,2014-02-21 05:15:00
12:35 AM,49.6,50.0,100,29.93,4.0,North,-9999.0,-,N/A,,Overcast,0,2014-02-21 05:35:00
12:55 AM,50.5,50.7,100,29.92,4.0,North,-9999.0,-,N/A,,Overcast,0,2014-02-21 05:55:00
1:15 AM,51.8,51.8,100,29.91,7.0,North,-9999.0,-,N/A,,Scattered Clouds,0,2014-02-21 06:15:00
1:35 AM,55.6,55.2,99,29.91,10.0,North,-9999.0,-,N/A,,Scattered Clouds,0,2014-02-21 06:35:00
1:55 AM,57.4,56.1,96,29.92,10.0,North,-9999.0,-,N/A,,Scattered Clouds,0,2014-02-21 06:55:00
2:15 AM,56.7,55.8,97,29.91,10.0,North,-9999.0,-,N/A,,Scattered Clouds,0,2014-02-21 07:15:00
2:35 AM,56.7,56.1,98,29.90,10.0,North,-9999.0,-,N/A,,Scattered Clouds,0,2014-02-21 07:35:00
2:55 AM,57.2,56.3,97,29.88,10.0,North,-9999.0,-,N/A,,Clear,0,2014-02-21 07:55:00
3:15 AM,56.8,56.1,97,29.88,10.0,North,-9999.0,-,N/A,,Clear,0,2014-02-21 08:15:00
3:35 AM,56.5,55.9,98,29.88,10.0,North,-9999.0,-,N/A,,Mostly Cloudy,0,2014-02-21 08:35:00
3:55 AM,56.8,56.3,98,29.86,10.0,North,-9999.0,-,N/A,,Mostly Cloudy,0,2014-02-21 08:55:00
4:15 AM,57.6,56.5,96,29.85,10.0,North,-9999.0,-,N/A,,Overcast,0,2014-02-21 09:15:00
4:35 AM,57.2,56.5,97,29.84,10.0,North,-9999.0,-,N/A,Rain-Thunderstorm,Light Thunderstorms and Rain,0,2014-02-21 09:35:00
4:55 AM,57.2,56.8,99,29.81,10.0,North,-9999.0,-,N/A,Thunderstorm,Overcast,0,2014-02-21 09:55:00
5:15 AM,56.7,56.8,100,29.83,5.0,North,-9999.0,-,N/A,Rain-Thunderstorm,Heavy Thunderstorms and Rain,0,2014-02-21 10:15:00
5:35 AM,56.5,56.7,100,29.82,5.0,North,-9999.0,-,N/A,Rain-Thunderstorm,Rain,0,2014-02-21 10:35:00
5:55 AM,57.4,57.4,100,29.85,5.0,North,-9999.0,-,N/A,Rain-Thunderstorm,Heavy Thunderstorms and Rain,0,2014-02-21 10:55:00
6:15 AM,57.9,57.9,100,29.84,4.0,North,-9999.0,-,N/A,Rain-Thunderstorm,Heavy Thunderstorms and Rain,0,2014-02-21 11:15:00
6:35 AM,58.6,58.8,100,29.85,5.0,North,-9999.0,-,N/A,Rain-Thunderstorm,Heavy Thunderstorms and Rain,0,2014-02-21 11:35:00
6:55 AM,59.4,59.5,100,29.86,3.0,North,-9999.0,-,N/A,Rain,Heavy Rain,0,2014-02-21 11:55:00
7:15 AM,-9999,-9999,N/A,29.84,10.0,North,-9999.0,-,N/A,Rain,Rain,0,2014-02-21 12:15:00
7:35 AM,-9999,-9999,N/A,29.86,10.0,North,-9999.0,-,N/A,Rain,Light Rain,0,2014-02-21 12:35:00
7:55 AM,59.5,59.7,100,29.86,10.0,North,-9999.0,-,N/A,,Drizzle,0,2014-02-21 12:55:00
8:15 AM,59.2,59.4,100,29.85,10.0,North,-9999.0,-,N/A,,Light Drizzle,0,2014-02-21 13:15:00
8:35 AM,59.2,59.4,100,29.86,10.0,North,-9999.0,-,N/A,,Overcast,0,2014-02-21 13:35:00
8:55 AM,59.2,59.4,100,29.87,10.0,North,-9999.0,-,N/A,,Overcast,0,2014-02-21 13:55:00
9:15 AM,59.0,59.0,100,29.88,10.0,North,-9999.0,-,N/A,,Overcast,0,2014-02-21 14:15:00
9:35 AM,58.1,55.8,92,29.88,10.0,North,-9999.0,-,N/A,,Overcast,0,2014-02-21 14:35:00
9:55 AM,57.0,53.4,88,29.88,10.0,North,-9999.0,-,N/A,,Overcast,0,2014-02-21 14:55:00
10:15 AM,56.1,52.5,88,29.90,10.0,North,-9999.0,-,N/A,,Overcast,0,2014-02-21 15:15:00
10:35 AM,55.8,51.6,86,29.89,10.0,North,-9999.0,-,N/A,,Overcast,0,2014-02-21 15:35:00
10:55 AM,56.5,50.9,82,29.89,10.0,North,-9999.0,-,N/A,,Overcast,0,2014-02-21 15:55:00
11:15 AM,57.6,50.9,78,29.90,10.0,North,-9999.0,-,N/A,,Scattered Clouds,0,2014-02-21 16:15:00
11:35 AM,58.3,49.5,72,29.90,10.0,North,-9999.0,-,N/A,,Clear,0,2014-02-21 16:35:00
11:55 AM,59.2,48.7,68,29.90,10.0,North,-9999.0,-,N/A,,Clear,0,2014-02-21 16:55:00
12:15 PM,61.5,47.1,59,29.90,10.0,North,-9999.0,-,N/A,,Clear,0,2014-02-21 17:15:00
12:35 PM,62.6,42.1,47,29.90,10.0,North,-9999.0,-,N/A,,Clear,0,2014-02-21 17:35:00
12:55 PM,63.1,38.5,40,29.89,10.0,North,-9999.0,-,N/A,,Clear,0,2014-02-21 17:55:00
1:15 PM,63.0,31.8,31,29.90,10.0,North,-9999.0,-,N/A,,Clear,0,2014-02-21 18:15:00
1:35 PM,63.1,28.0,27,29.90,10.0,North,-9999.0,-,N/A,,Clear,0,2014-02-21 18:35:00
1:55 PM,63.3,25.9,24,29.90,10.0,North,-9999.0,-,N/A,,Clear,0,2014-02-21 18:55:00
2:15 PM,63.9,26.6,24,29.91,10.0,North,-9999.0,-,N/A,,Clear,0,2014-02-21 19:15:00
2:35 PM,64.4,28.0,25,29.91,10.0,North,-9999.0,-,N/A,,Clear,0,2014-02-21 19:35:00
2:55 PM,64.9,27.9,25,29.91,10.0,North,-9999.0,-,N/A,,Clear,0,2014-02-21 19:55:00
3:15 PM,65.8,27.9,24,29.91,10.0,North,-9999.0,-,N/A,,Clear,0,2014-02-21 20:15:00
3:35 PM,66.6,26.6,22,29.91,10.0,WNW,13.8,19.6,N/A,,Clear,290,2014-02-21 20:35:00
3:55 PM,66.4,20.5,17,29.92,10.0,NW,16.1,25.3,N/A,,Clear,310,2014-02-21 20:55:00
4:15 PM,65.7,19.2,17,29.93,10.0,WNW,10.4,21.9,N/A,,Clear,290,2014-02-21 21:15:00
4:35 PM,65.3,19.9,18,29.93,10.0,WNW,11.5,19.6,N/A,,Clear,300,2014-02-21 21:35:00
4:55 PM,64.6,19.8,18,29.94,10.0,WNW,13.8,18.4,N/A,,Clear,300,2014-02-21 21:55:00
5:15 PM,64.0,20.7,19,29.96,10.0,WNW,6.9,-,N/A,,Clear,290,2014-02-21 22:15:00
5:35 PM,62.6,24.3,23,29.96,10.0,North,-9999.0,-,N/A,,Clear,0,2014-02-21 22:35:00
5:55 PM,60.8,25.3,26,29.97,10.0,North,-9999.0,-,N/A,,Clear,0,2014-02-21 22:55:00
6:15 PM,59.2,25.7,28,29.98,10.0,North,-9999.0,-,N/A,,Clear,0,2014-02-21 23:15:00
6:35 PM,57.2,25.9,30,29.99,10.0,North,-9999.0,-,N/A,,Clear,0,2014-02-21 23:35:00
6:55 PM,55.6,25.7,32,30.00,10.0,North,-9999.0,-,N/A,,Clear,0,2014-02-21 23:55:00
7:15 PM,54.5,25.5,33,30.00,10.0,North,-9999.0,-,N/A,,Clear,0,2014-02-22 00:15:00
7:35 PM,53.1,25.7,35,30.01,10.0,North,-9999.0,-,N/A,,Clear,0,2014-02-22 00:35:00
7:55 PM,52.0,25.0,35,30.02,10.0,North,-9999.0,-,N/A,,Clear,0,2014-02-22 00:55:00
8:15 PM,50.5,25.3,38,30.01,10.0,North,-9999.0,-,N/A,,Clear,0,2014-02-22 01:15:00
8:35 PM,49.6,25.9,40,30.01,10.0,North,-9999.0,-,N/A,,Clear,0,2014-02-22 01:35:00
8:55 PM,48.4,26.2,42,30.00,10.0,North,-9999.0,-,N/A,,Clear,0,2014-02-22 01:55:00
9:15 PM,47.5,26.4,44,30.01,10.0,North,-9999.0,-,N/A,,Clear,0,2014-02-22 02:15:00
9:35 PM,47.1,25.7,43,30.01,10.0,North,-9999.0,-,N/A,,Clear,0,2014-02-22 02:35:00
9:55 PM,46.8,24.4,42,30.01,10.0,North,-9999.0,-,N/A,,Clear,0,2014-02-22 02:55:00
10:15 PM,45.5,24.1,43,30.01,10.0,North,-9999.0,-,N/A,,Clear,0,2014-02-22 03:15:00
10:35 PM,45.7,23.0,41,30.01,10.0,North,-9999.0,-,N/A,,Clear,0,2014-02-22 03:35:00
10:55 PM,43.9,24.3,46,30.02,10.0,North,-9999.0,-,N/A,,Clear,0,2014-02-22 03:55:00
11:15 PM,44.1,23.4,44,30.03,10.0,North,-9999.0,-,N/A,,Clear,0,2014-02-22 04:15:00
11:35 PM,41.2,25.3,53,30.03,10.0,North,-9999.0,-,N/A,,Clear,0,2014-02-22 04:35:00
11:55 PM,39.4,26.2,59,30.04,10.0,North,-9999.0,-,N/A,,Clear,0,2014-02-22 04:55:00